HAZ8368 VVDN-ZGGG

Flight info

Callsign HAZ8368
Flight time 1h 52m
Altitude 35000
Route BUNTA2A BUNTA A1 LENKO/K0895F350 A1 IKELA/N0456F270 A1 BIGEX A461 IDUMA IDUMA9
Aircraft B77W/H-SDE1E2E3FGHIJ2J3J4J5M1RWXY/LB1D1

Departure

Time 2026-04-20 01:37
Airport Da Nang International Airport (VVDN)

Arrival

Time 2026-04-20 03:29
Airport Guangzhou Baiyun International Airport (ZGGG)
Time Latitude Longitude Altitude Speed Heading
2026-04-20 01:09 16.05978 108.20092 55 ft 0 kts 82°
2026-04-20 01:29 16.05976 108.20078 56 ft 2 kts 82°
2026-04-20 01:29 16.05975 108.20068 56 ft 0 kts 82°
2026-04-20 01:30 16.05973 108.20052 56 ft 2 kts 69°
2026-04-20 01:30 16.05965 108.20039 56 ft 2 kts 51°
2026-04-20 01:30 16.05955 108.20028 55 ft 2 kts 35°
2026-04-20 01:30 16.05941 108.20020 55 ft 2 kts 20°
2026-04-20 01:31 16.05927 108.20016 55 ft 2 kts
2026-04-20 01:31 16.05916 108.20016 55 ft 0 kts 352°
2026-04-20 01:31 16.05912 108.20016 55 ft 0 kts 351°
2026-04-20 01:33 16.05914 108.20016 55 ft 1 kts 351°
2026-04-20 01:34 16.05960 108.20009 55 ft 9 kts 351°
2026-04-20 01:34 16.06028 108.19994 56 ft 9 kts 329°
2026-04-20 01:34 16.06042 108.19932 55 ft 9 kts 263°
2026-04-20 01:34 16.06032 108.19863 55 ft 9 kts 259°
2026-04-20 01:35 16.06003 108.19809 55 ft 8 kts 204°
2026-04-20 01:35 16.05943 108.19814 55 ft 8 kts 169°
2026-04-20 01:35 16.05926 108.19817 54 ft 0 kts 173°
2026-04-20 01:35 16.05917 108.19817 54 ft 8 kts 173°
2026-04-20 01:36 16.05726 108.19844 53 ft 58 kts 172°
2026-04-20 01:36 16.05085 108.19936 56 ft 125 kts 172°
2026-04-20 01:36 16.04009 108.20095 74 ft 180 kts 172°
2026-04-20 01:36 16.02698 108.20307 558 ft 193 kts 170°
2026-04-20 01:37 16.01378 108.20519 1521 ft 189 kts 170°
2026-04-20 01:37 16.00017 108.20730 2022 ft 206 kts 170°
2026-04-20 01:37 15.98549 108.20957 2531 ft 222 kts 170°
2026-04-20 01:37 15.96986 108.21199 3044 ft 238 kts 170°
2026-04-20 01:38 15.95251 108.21218 3582 ft 257 kts 192°
2026-04-20 01:38 15.93596 108.20409 4258 ft 270 kts 219°
2026-04-20 01:38 15.92479 108.18828 5214 ft 272 kts 249°
2026-04-20 01:38 15.92205 108.16909 6124 ft 273 kts 276°
2026-04-20 01:39 15.92812 108.15068 6919 ft 277 kts 303°
2026-04-20 01:39 15.94222 108.13689 7642 ft 285 kts 332°
2026-04-20 01:39 15.96151 108.13194 8450 ft 287 kts
2026-04-20 01:39 15.98097 108.13761 9188 ft 291 kts 32°
2026-04-20 01:40 15.99705 108.14999 10029 ft 291 kts 40°
2026-04-20 01:40 16.01286 108.16357 10632 ft 302 kts 40°
2026-04-20 01:40 16.02948 108.17799 11109 ft 318 kts 40°
2026-04-20 01:40 16.04702 108.19342 11572 ft 334 kts 44°
2026-04-20 01:41 16.06226 108.21259 12019 ft 350 kts 55°
2026-04-20 01:41 16.07626 108.23396 12490 ft 366 kts 56°
2026-04-20 01:41 16.09089 108.25674 12992 ft 381 kts 56°
2026-04-20 01:41 16.10608 108.28030 13589 ft 392 kts 56°
2026-04-20 01:42 16.12136 108.30398 14363 ft 397 kts 56°
2026-04-20 01:42 16.13678 108.32785 15140 ft 402 kts 55°
2026-04-20 01:42 16.15250 108.35218 15920 ft 406 kts 55°
2026-04-20 01:42 16.16841 108.37681 16661 ft 412 kts 55°
2026-04-20 01:43 16.18474 108.40208 17388 ft 417 kts 55°
2026-04-20 01:43 16.20088 108.42706 18083 ft 422 kts 55°
2026-04-20 01:43 16.21749 108.45279 18785 ft 427 kts 55°
2026-04-20 01:43 16.23405 108.47843 19444 ft 432 kts 55°
2026-04-20 01:44 16.25083 108.50443 20092 ft 437 kts 55°
2026-04-20 01:44 16.26804 108.53110 20745 ft 441 kts 55°
2026-04-20 01:44 16.28530 108.55787 21379 ft 445 kts 55°
2026-04-20 01:44 16.30254 108.58459 21979 ft 449 kts 55°
2026-04-20 01:45 16.31998 108.61166 22562 ft 454 kts 55°
2026-04-20 01:45 16.33760 108.63902 23143 ft 458 kts 54°
2026-04-20 01:45 16.35543 108.66670 23698 ft 463 kts 55°
2026-04-20 01:45 16.37383 108.69457 24250 ft 468 kts 54°
2026-04-20 01:46 16.39290 108.72304 24827 ft 472 kts 53°
2026-04-20 01:46 16.41162 108.75100 25401 ft 476 kts 53°
2026-04-20 01:46 16.43054 108.77930 25969 ft 480 kts 53°
2026-04-20 01:46 16.44983 108.80817 26533 ft 485 kts 53°
2026-04-20 01:47 16.46899 108.83688 27077 ft 490 kts 53°
2026-04-20 01:47 16.48851 108.86614 27619 ft 495 kts 53°
2026-04-20 01:47 16.50845 108.89606 28191 ft 499 kts 53°
2026-04-20 01:47 16.52856 108.92625 28753 ft 503 kts 53°
2026-04-20 01:48 16.54869 108.95650 29305 ft 507 kts 53°
2026-04-20 01:48 16.56852 108.98639 30058 ft 506 kts 53°
2026-04-20 01:48 16.58842 109.01698 31028 ft 500 kts 53°
2026-04-20 01:48 16.60799 109.04717 32016 ft 493 kts 53°
2026-04-20 01:49 16.62705 109.07656 32856 ft 488 kts 53°
2026-04-20 01:49 16.64592 109.10566 33593 ft 486 kts 53°
2026-04-20 01:49 16.66485 109.13485 34230 ft 485 kts 53°
2026-04-20 01:49 16.68389 109.16421 34823 ft 485 kts 53°
2026-04-20 01:50 16.70276 109.19331 34927 ft 487 kts 53°
2026-04-20 01:50 16.72186 109.22279 34930 ft 484 kts 53°
2026-04-20 01:50 16.75930 109.28059 34935 ft 484 kts 53°
2026-04-20 01:51 16.79719 109.33914 34934 ft 483 kts 53°
2026-04-20 01:51 16.83463 109.39702 34936 ft 484 kts 53°
2026-04-20 01:52 16.87252 109.45554 34935 ft 483 kts 53°
2026-04-20 01:52 16.91042 109.51411 34928 ft 484 kts 53°
2026-04-20 01:53 16.94820 109.57255 34933 ft 484 kts 53°
2026-04-20 01:53 16.98593 109.63096 34939 ft 483 kts 53°
2026-04-20 01:54 17.02377 109.68958 34934 ft 484 kts 54°
2026-04-20 01:54 17.06155 109.74817 34939 ft 485 kts 53°
2026-04-20 01:55 17.09938 109.80688 34944 ft 484 kts 54°
2026-04-20 01:55 17.13695 109.86524 34949 ft 485 kts 53°
2026-04-20 01:56 17.17469 109.92393 34952 ft 484 kts 53°
2026-04-20 01:56 17.21214 109.98219 34952 ft 485 kts 53°
2026-04-20 01:57 17.24977 110.04079 34951 ft 485 kts 54°
2026-04-20 01:57 17.28736 110.09939 34952 ft 486 kts 54°
2026-04-20 01:58 17.32489 110.15793 34952 ft 487 kts 54°
2026-04-20 01:58 17.36261 110.21683 34953 ft 486 kts 54°
2026-04-20 01:59 17.40027 110.27568 34952 ft 486 kts 54°
2026-04-20 01:59 17.43809 110.33445 34953 ft 487 kts 53°
2026-04-20 02:00 17.47617 110.39301 34952 ft 487 kts 53°
2026-04-20 02:00 17.51441 110.45190 34953 ft 489 kts 53°
2026-04-20 02:01 17.55279 110.51109 34953 ft 488 kts 53°
2026-04-20 02:01 17.59084 110.56981 34953 ft 488 kts 53°
2026-04-20 02:02 17.62897 110.62872 34951 ft 489 kts 53°
2026-04-20 02:02 17.66709 110.68769 34947 ft 489 kts 53°
2026-04-20 02:03 17.70504 110.74643 34948 ft 490 kts 53°
2026-04-20 02:03 17.74346 110.80596 34947 ft 490 kts 53°
2026-04-20 02:04 17.78164 110.86516 34946 ft 491 kts 53°
2026-04-20 02:04 17.82012 110.92489 34947 ft 490 kts 53°
2026-04-20 02:05 17.85820 110.98405 34948 ft 492 kts 53°
2026-04-20 02:05 17.89655 111.04369 34947 ft 492 kts 53°
2026-04-20 02:06 17.93494 111.10345 34948 ft 491 kts 53°
2026-04-20 02:06 17.97306 111.16283 34952 ft 492 kts 53°
2026-04-20 02:07 18.01126 111.22238 34952 ft 491 kts 53°
2026-04-20 02:07 18.04960 111.28222 34958 ft 493 kts 53°
2026-04-20 02:08 18.08804 111.34227 34967 ft 491 kts 53°
2026-04-20 02:08 18.12628 111.40205 34972 ft 492 kts 54°
2026-04-20 02:09 18.16458 111.46200 34974 ft 493 kts 54°
2026-04-20 02:09 18.20258 111.52152 34975 ft 492 kts 53°
2026-04-20 02:10 18.24067 111.58124 34975 ft 493 kts 54°
2026-04-20 02:10 18.27906 111.64148 34973 ft 493 kts 54°
2026-04-20 02:11 18.31724 111.70146 34967 ft 493 kts 54°
2026-04-20 02:11 18.35549 111.76159 34969 ft 493 kts 54°
2026-04-20 02:12 18.39380 111.82188 34970 ft 493 kts 54°
2026-04-20 02:12 18.43196 111.88199 34968 ft 494 kts 54°
2026-04-20 02:13 18.47017 111.94224 34971 ft 493 kts 54°
2026-04-20 02:13 18.50824 112.00231 34972 ft 495 kts 54°
2026-04-20 02:14 18.54650 112.06275 34972 ft 494 kts 54°
2026-04-20 02:14 18.58469 112.12312 34971 ft 496 kts 54°
2026-04-20 02:15 18.62285 112.18353 34973 ft 495 kts 54°
2026-04-20 02:15 18.66413 112.24196 34970 ft 494 kts 43°
2026-04-20 02:16 18.71693 112.28707 34974 ft 489 kts 33°
2026-04-20 02:16 18.77249 112.32869 34973 ft 489 kts 33°
2026-04-20 02:17 18.82788 112.37028 34973 ft 489 kts 33°
2026-04-20 02:17 18.88330 112.41200 34972 ft 489 kts 33°
2026-04-20 02:18 18.93896 112.45396 34973 ft 489 kts 33°
2026-04-20 02:18 18.99464 112.49515 34966 ft 489 kts 28°
2026-04-20 02:19 19.05568 112.52605 34974 ft 486 kts 20°
2026-04-20 02:19 19.11785 112.55490 34972 ft 486 kts 20°
2026-04-20 02:20 19.18013 112.58385 34967 ft 487 kts 20°
2026-04-20 02:20 19.24179 112.61256 34968 ft 486 kts 20°
2026-04-20 02:21 19.33567 112.65633 34962 ft 487 kts 21°
2026-04-20 02:22 19.39742 112.68514 34964 ft 487 kts 21°
2026-04-20 02:22 19.46033 112.71454 34961 ft 488 kts 21°
2026-04-20 02:23 19.52250 112.74361 34962 ft 489 kts 21°
2026-04-20 02:23 19.58482 112.77278 34966 ft 487 kts 21°
2026-04-20 02:24 19.64712 112.80196 34967 ft 489 kts 20°
2026-04-20 02:24 19.70924 112.83109 34969 ft 490 kts 20°
2026-04-20 02:25 19.77216 112.86062 34965 ft 489 kts 20°
2026-04-20 02:25 19.83442 112.88985 34967 ft 490 kts 21°
2026-04-20 02:26 19.89678 112.91917 34973 ft 490 kts 21°
2026-04-20 02:26 19.95948 112.94867 34972 ft 491 kts 21°
2026-04-20 02:27 20.02235 112.97827 34968 ft 490 kts 21°
2026-04-20 02:27 20.08497 113.00779 34975 ft 490 kts 21°
2026-04-20 02:28 20.14753 113.03729 34973 ft 490 kts 21°
2026-04-20 02:28 20.21007 113.06683 34974 ft 490 kts 21°
2026-04-20 02:29 20.27221 113.09618 34970 ft 492 kts 21°
2026-04-20 02:29 20.33511 113.12594 34976 ft 490 kts 21°
2026-04-20 02:30 20.39774 113.15559 34974 ft 491 kts 20°
2026-04-20 02:30 20.45988 113.18503 34981 ft 491 kts 20°
2026-04-20 02:31 20.52281 113.21487 34976 ft 491 kts 21°
2026-04-20 02:31 20.58512 113.24445 34977 ft 492 kts 21°
2026-04-20 02:32 20.64778 113.27421 34978 ft 491 kts 21°
2026-04-20 02:32 20.70991 113.30376 34978 ft 492 kts 21°
2026-04-20 02:33 20.77253 113.33356 34978 ft 492 kts 21°
2026-04-20 02:33 20.83501 113.36333 34977 ft 493 kts 21°
2026-04-20 02:34 20.89761 113.39318 34976 ft 491 kts 21°
2026-04-20 02:34 20.96043 113.42315 34977 ft 493 kts 21°
2026-04-20 02:35 21.02323 113.45315 34976 ft 492 kts 21°
2026-04-20 02:35 21.08611 113.48322 34977 ft 493 kts 21°
2026-04-20 02:36 21.14897 113.51330 34977 ft 495 kts 20°
2026-04-20 02:36 21.21261 113.54378 34976 ft 494 kts 21°
2026-04-20 02:37 21.27535 113.57387 34978 ft 494 kts 20°
2026-04-20 02:37 21.33837 113.60412 34979 ft 493 kts 20°
2026-04-20 02:38 21.40109 113.63424 34978 ft 494 kts 20°
2026-04-20 02:38 21.46451 113.66473 34968 ft 495 kts 21°
2026-04-20 02:39 21.52759 113.69510 34968 ft 494 kts 21°
2026-04-20 02:39 21.59050 113.72540 34971 ft 495 kts 21°
2026-04-20 02:40 21.65352 113.75580 34971 ft 494 kts 21°
2026-04-20 02:40 21.71665 113.78627 34972 ft 494 kts 21°
2026-04-20 02:41 21.77956 113.81666 34971 ft 495 kts 21°
2026-04-20 02:41 21.84260 113.84715 34971 ft 496 kts 21°
2026-04-20 02:42 21.90560 113.87765 34972 ft 495 kts 21°
2026-04-20 02:42 21.96898 113.90836 34972 ft 496 kts 21°
2026-04-20 02:43 22.02828 113.93712 34975 ft 494 kts 20°
2026-04-20 02:43 22.08536 113.96483 34975 ft 496 kts 21°
2026-04-20 02:44 22.14836 113.99545 34980 ft 495 kts 21°
2026-04-20 02:44 22.21179 114.02615 34965 ft 495 kts 18°
2026-04-20 02:45 22.27692 114.04862 34765 ft 486 kts 12°
2026-04-20 02:45 22.30985 114.05904 34330 ft 489 kts 12°
2026-04-20 02:45 22.34255 114.06940 33885 ft 493 kts 13°
2026-04-20 02:45 22.37549 114.07986 33591 ft 493 kts 13°
2026-04-20 02:46 22.40841 114.09033 33383 ft 492 kts 12°
2026-04-20 02:46 22.44080 114.10065 33198 ft 491 kts 13°
2026-04-20 02:46 22.47356 114.11073 32976 ft 488 kts
2026-04-20 02:46 22.50711 114.11652 32691 ft 484 kts
2026-04-20 02:47 22.54092 114.11668 32357 ft 480 kts 351°
2026-04-20 02:47 22.57386 114.11118 31976 ft 475 kts 342°
2026-04-20 02:47 22.60562 114.10047 31185 ft 470 kts 334°
2026-04-20 02:47 22.63541 114.08599 30486 ft 466 kts 331°
2026-04-20 02:48 22.66452 114.07110 30013 ft 459 kts 331°
2026-04-20 02:48 22.69320 114.05637 29509 ft 453 kts 331°
2026-04-20 02:48 22.72139 114.04187 28989 ft 448 kts 331°
2026-04-20 02:48 22.74948 114.02741 28474 ft 444 kts 331°
2026-04-20 02:49 22.77787 114.01279 27931 ft 453 kts 331°
2026-04-20 02:49 22.80651 113.99802 27366 ft 457 kts 331°
2026-04-20 02:49 22.83513 113.98327 26805 ft 454 kts 331°
2026-04-20 02:49 22.86383 113.96848 26224 ft 451 kts 331°
2026-04-20 02:50 22.89280 113.95573 25649 ft 450 kts 339°
2026-04-20 02:50 22.92289 113.94833 25068 ft 450 kts 348°
2026-04-20 02:50 22.95391 113.94378 24479 ft 447 kts 349°
2026-04-20 02:50 22.98489 113.93953 23869 ft 444 kts 349°
2026-04-20 02:51 23.01544 113.93536 23268 ft 441 kts 349°
2026-04-20 02:51 23.04576 113.93121 22676 ft 437 kts 349°
2026-04-20 02:51 23.07577 113.92709 22097 ft 434 kts 349°
2026-04-20 02:51 23.10542 113.92303 21517 ft 431 kts 349°
2026-04-20 02:52 23.13572 113.91887 20908 ft 428 kts 349°
2026-04-20 02:52 23.16539 113.91479 20312 ft 425 kts 350°
2026-04-20 02:52 23.19454 113.91079 19725 ft 422 kts 350°
2026-04-20 02:52 23.22395 113.90675 19128 ft 419 kts 350°
2026-04-20 02:53 23.25267 113.90279 18542 ft 416 kts 350°
2026-04-20 02:53 23.28150 113.89883 17936 ft 413 kts 350°
2026-04-20 02:53 23.31033 113.89485 17251 ft 413 kts 351°
2026-04-20 02:53 23.33863 113.89095 16622 ft 410 kts 350°
2026-04-20 02:54 23.36686 113.88706 16022 ft 407 kts 351°
2026-04-20 02:54 23.39495 113.88319 15424 ft 404 kts 351°
2026-04-20 02:54 23.42294 113.87933 14830 ft 401 kts 351°
2026-04-20 02:54 23.45063 113.87551 14244 ft 397 kts 351°
2026-04-20 02:55 23.47781 113.87176 13658 ft 394 kts 351°
2026-04-20 02:55 23.50508 113.86800 13073 ft 391 kts 351°
2026-04-20 02:55 23.53216 113.86425 12506 ft 387 kts 351°
2026-04-20 02:55 23.55859 113.85921 11931 ft 382 kts 343°
2026-04-20 02:56 23.58316 113.84916 11365 ft 377 kts 332°
2026-04-20 02:56 23.60517 113.83411 10817 ft 371 kts 319°
2026-04-20 02:56 23.62288 113.81450 10613 ft 354 kts 305°
2026-04-20 02:56 23.63551 113.79210 10521 ft 335 kts 295°
2026-04-20 02:57 23.64488 113.76966 10395 ft 321 kts 290°
2026-04-20 02:57 23.65387 113.74748 10253 ft 310 kts 292°
2026-04-20 02:57 23.66178 113.72613 10110 ft 298 kts 287°
2026-04-20 02:57 23.66792 113.70513 9876 ft 291 kts 284°
2026-04-20 02:58 23.67326 113.68395 9632 ft 285 kts 282°
2026-04-20 02:58 23.67815 113.66331 9527 ft 274 kts 281°
2026-04-20 02:58 23.68274 113.64362 9427 ft 263 kts 281°
2026-04-20 02:58 23.68719 113.62444 9305 ft 255 kts 281°
2026-04-20 02:59 23.69151 113.60573 8987 ft 255 kts 281°
2026-04-20 02:59 23.69587 113.58690 8647 ft 256 kts 281°
2026-04-20 02:59 23.70020 113.56818 8331 ft 256 kts 281°
2026-04-20 02:59 23.70459 113.54919 8025 ft 255 kts 281°
2026-04-20 03:00 23.70891 113.53052 7724 ft 254 kts 281°
2026-04-20 03:00 23.71327 113.51163 7423 ft 254 kts 281°
2026-04-20 03:00 23.71758 113.49299 7120 ft 254 kts 282°
2026-04-20 03:00 23.72186 113.47445 6824 ft 254 kts 281°
2026-04-20 03:01 23.72618 113.45571 6526 ft 254 kts 282°
2026-04-20 03:01 23.72976 113.43697 6221 ft 251 kts 268°
2026-04-20 03:01 23.72613 113.41875 5919 ft 242 kts 238°
2026-04-20 03:01 23.71525 113.40580 5785 ft 228 kts 210°
2026-04-20 03:02 23.70122 113.39864 5692 ft 220 kts 199°
2026-04-20 03:02 23.68644 113.39365 5607 ft 221 kts 195°
2026-04-20 03:02 23.67139 113.38940 5421 ft 223 kts 194°
2026-04-20 03:02 23.65620 113.38529 5089 ft 225 kts 193°
2026-04-20 03:03 23.64082 113.38113 4790 ft 226 kts 193°
2026-04-20 03:03 23.62561 113.37701 4468 ft 223 kts 193°
2026-04-20 03:03 23.61047 113.37290 4171 ft 220 kts 193°
2026-04-20 03:03 23.59565 113.36889 3881 ft 218 kts 193°
2026-04-20 03:04 23.58092 113.36489 3586 ft 215 kts 193°
2026-04-20 03:04 23.56623 113.36092 3294 ft 213 kts 193°
2026-04-20 03:04 23.55181 113.35701 3013 ft 210 kts 193°
2026-04-20 03:04 23.53746 113.35312 2707 ft 208 kts 193°
2026-04-20 03:05 23.52385 113.34943 2586 ft 191 kts 192°
2026-04-20 03:05 23.51135 113.34605 2572 ft 173 kts 192°
2026-04-20 03:05 23.49998 113.34297 2568 ft 163 kts 192°
2026-04-20 03:05 23.48903 113.34001 2595 ft 159 kts 192°
2026-04-20 03:06 23.47837 113.33713 2499 ft 160 kts 191°
2026-04-20 03:06 23.46709 113.33443 2003 ft 168 kts 191°
2026-04-20 03:06 23.45599 113.33166 1561 ft 162 kts 192°
2026-04-20 03:06 23.44526 113.32837 1071 ft 161 kts 196°
2026-04-20 03:07 23.43461 113.32503 713 ft 155 kts 191°
2026-04-20 03:07 23.42395 113.32295 431 ft 150 kts 191°
2026-04-20 03:07 23.41376 113.31983 309 ft 152 kts 197°
2026-04-20 03:07 23.40349 113.31682 122 ft 155 kts 192°
2026-04-20 03:08 23.39302 113.31404 113 ft 152 kts 193°
2026-04-20 03:08 23.38358 113.31122 215 ft 125 kts 194°
2026-04-20 03:08 23.37516 113.30901 66 ft 145 kts 193°
2026-04-20 03:08 23.36457 113.30595 867 ft 177 kts 194°
2026-04-20 03:09 23.35046 113.30181 1480 ft 235 kts 194°
2026-04-20 03:09 23.33294 113.29656 2308 ft 287 kts 195°
2026-04-20 03:09 23.31226 113.29085 2551 ft 310 kts 191°
2026-04-20 03:09 23.29122 113.28716 2573 ft 294 kts 186°
2026-04-20 03:10 23.27158 113.28459 2573 ft 276 kts 186°
2026-04-20 03:10 23.25297 113.28585 2554 ft 258 kts 161°
2026-04-20 03:10 23.23829 113.29588 2576 ft 240 kts 131°
2026-04-20 03:10 23.23072 113.31109 2780 ft 220 kts 112°
2026-04-20 03:11 23.22586 113.32673 3026 ft 217 kts 108°
2026-04-20 03:11 23.22247 113.34249 3286 ft 211 kts 107°
2026-04-20 03:11 23.21849 113.35793 3561 ft 210 kts 109°
2026-04-20 03:11 23.21442 113.37316 3832 ft 211 kts 109°
2026-04-20 03:12 23.21033 113.38858 3966 ft 212 kts 109°
2026-04-20 03:12 23.20631 113.40398 3977 ft 211 kts 109°
2026-04-20 03:12 23.20227 113.41938 3979 ft 211 kts 109°
2026-04-20 03:12 23.19822 113.43483 3979 ft 211 kts 108°
2026-04-20 03:13 23.19415 113.45010 3974 ft 212 kts 108°
2026-04-20 03:13 23.19136 113.46581 3950 ft 213 kts 88°
2026-04-20 03:13 23.19596 113.48113 3962 ft 216 kts 63°
2026-04-20 03:13 23.20606 113.49337 3967 ft 218 kts 42°
2026-04-20 03:14 23.21916 113.50231 3943 ft 221 kts 19°
2026-04-20 03:14 23.23419 113.50609 3972 ft 224 kts 12°
2026-04-20 03:14 23.24948 113.50916 3983 ft 223 kts 12°
2026-04-20 03:14 23.26505 113.51224 3979 ft 224 kts 12°
2026-04-20 03:15 23.28052 113.51527 3975 ft 225 kts 12°
2026-04-20 03:15 23.29600 113.51829 3971 ft 224 kts 12°
2026-04-20 03:15 23.31148 113.52130 3977 ft 225 kts 12°
2026-04-20 03:15 23.32682 113.52426 3974 ft 225 kts 12°
2026-04-20 03:16 23.34260 113.52729 3971 ft 224 kts 12°
2026-04-20 03:16 23.35817 113.53028 3971 ft 224 kts 12°
2026-04-20 03:16 23.37358 113.53325 3968 ft 224 kts 12°
2026-04-20 03:16 23.38924 113.53625 3971 ft 225 kts 11°
2026-04-20 03:17 23.40481 113.53927 3964 ft 224 kts 12°
2026-04-20 03:17 23.42070 113.54236 3972 ft 235 kts 11°
2026-04-20 03:17 23.43689 113.54555 3967 ft 234 kts 12°
2026-04-20 03:17 23.45321 113.54878 3964 ft 234 kts 12°
2026-04-20 03:18 23.46958 113.55203 3972 ft 234 kts 11°
2026-04-20 03:18 23.48586 113.55523 3963 ft 235 kts 12°
2026-04-20 03:18 23.50204 113.55843 3961 ft 235 kts 12°
2026-04-20 03:18 23.51842 113.56161 3968 ft 235 kts 12°
2026-04-20 03:19 23.53471 113.56474 3969 ft 235 kts 12°
2026-04-20 03:19 23.55097 113.56785 3971 ft 234 kts 12°
2026-04-20 03:19 23.56772 113.56935 3952 ft 250 kts 353°
2026-04-20 03:19 23.58318 113.56218 3876 ft 239 kts 319°
2026-04-20 03:20 23.59360 113.54817 3846 ft 235 kts 302°
2026-04-20 03:20 23.60253 113.53307 3840 ft 233 kts 301°
2026-04-20 03:20 23.61126 113.51817 3837 ft 233 kts 301°
2026-04-20 03:20 23.62001 113.50319 3834 ft 232 kts 301°
2026-04-20 03:21 23.62874 113.48823 3830 ft 232 kts 301°
2026-04-20 03:21 23.63738 113.47341 3826 ft 232 kts 301°
2026-04-20 03:21 23.64597 113.45864 3823 ft 233 kts 301°
2026-04-20 03:21 23.65448 113.44397 3812 ft 233 kts 301°
2026-04-20 03:22 23.66320 113.42868 3788 ft 233 kts 296°
2026-04-20 03:22 23.66686 113.41202 3730 ft 217 kts 265°
2026-04-20 03:22 23.66222 113.39693 3657 ft 205 kts 236°
2026-04-20 03:22 23.65197 113.38655 3606 ft 201 kts 207°
2026-04-20 03:23 23.63891 113.38082 3585 ft 197 kts 196°
2026-04-20 03:23 23.62575 113.37695 3562 ft 195 kts 193°
2026-04-20 03:23 23.61257 113.37329 3535 ft 187 kts 194°
2026-04-20 03:23 23.59998 113.36966 3517 ft 183 kts 194°
2026-04-20 03:24 23.58749 113.36621 3494 ft 182 kts 193°
2026-04-20 03:24 23.57549 113.36299 3294 ft 170 kts 193°
2026-04-20 03:24 23.56434 113.36002 3080 ft 159 kts 193°
2026-04-20 03:24 23.55391 113.35723 2877 ft 146 kts 193°
2026-04-20 03:25 23.54390 113.35456 2691 ft 147 kts 193°
2026-04-20 03:25 23.53401 113.35191 2520 ft 146 kts 193°
2026-04-20 03:25 23.52417 113.34926 2326 ft 144 kts 192°
2026-04-20 03:25 23.51417 113.34656 2142 ft 146 kts 192°
2026-04-20 03:26 23.50428 113.34392 1964 ft 143 kts 192°
2026-04-20 03:26 23.49445 113.34127 1770 ft 145 kts 192°
2026-04-20 03:26 23.48459 113.33862 1582 ft 144 kts 192°
2026-04-20 03:26 23.47471 113.33597 1404 ft 144 kts 193°
2026-04-20 03:27 23.46477 113.33328 1220 ft 146 kts 193°
2026-04-20 03:27 23.45480 113.33061 1030 ft 145 kts 193°
2026-04-20 03:27 23.44489 113.32794 845 ft 147 kts 193°
2026-04-20 03:27 23.43496 113.32533 690 ft 146 kts 193°
2026-04-20 03:28 23.42488 113.32256 508 ft 147 kts 194°
2026-04-20 03:28 23.41487 113.31979 275 ft 146 kts 192°
2026-04-20 03:28 23.39511 113.31458 65 ft 135 kts 194°
2026-04-20 03:29 23.38721 113.31252 61 ft 93 kts 195°
2026-04-20 03:29 23.38235 113.31116 61 ft 48 kts 194°
2026-04-20 03:29 23.38039 113.31062 61 ft 19 kts 195°
2026-04-20 03:29 23.37919 113.31013 61 ft 17 kts 207°
2026-04-20 03:30 23.37820 113.30943 61 ft 15 kts 220°
2026-04-20 03:30 23.37741 113.30862 61 ft 15 kts 225°
2026-04-20 03:30 23.37666 113.30786 61 ft 14 kts 217°
2026-04-20 03:30 23.37581 113.30739 61 ft 13 kts 204°
2026-04-20 03:31 23.37545 113.30665 61 ft 12 kts 281°
2026-04-20 03:31 23.37564 113.30576 61 ft 11 kts 283°
2026-04-20 03:31 23.37583 113.30491 61 ft 11 kts 284°
2026-04-20 03:31 23.37605 113.30402 61 ft 13 kts 285°
2026-04-20 03:32 23.37633 113.30293 61 ft 16 kts 287°
2026-04-20 03:32 23.37704 113.30208 61 ft 15 kts 331°
2026-04-20 03:32 23.37803 113.30191 61 ft 14 kts 12°
2026-04-20 03:32 23.37907 113.30218 61 ft 18 kts 13°
2026-04-20 03:33 23.38055 113.30259 61 ft 22 kts 14°
2026-04-20 03:33 23.38201 113.30299 61 ft 21 kts 14°
2026-04-20 03:33 23.38340 113.30336 61 ft 19 kts 14°
2026-04-20 03:33 23.38468 113.30372 61 ft 18 kts 14°
2026-04-20 03:34 23.38587 113.30366 61 ft 16 kts 334°
2026-04-20 03:34 23.38676 113.30323 61 ft 8 kts 338°
2026-04-20 03:34 23.38714 113.30306 61 ft 0 kts 337°
2026-04-20 03:34 23.38715 113.30306 61 ft 0 kts 337°